CW9443 Weather Reports


Display with metric or nautical units.
time (UTC)temp
F
wind
direction
speed
MPH
gust
MPH
rain 1hr
in
rain 24hr
in
rain mn
in
humidity
%
barometer
mb
20260906180117 63 275 0.0 0.0 0.00 0.00 0.19 89 1014.9
20260906180001 63 275 0.0 0.0 0.00 0.00 0.19 89 1014.9
20260906174559 62 275 0.0 0.0 0.00 0.00 0.16 88 1014.6
20260906173049 63 275 0.0 0.0 0.00 0.00 0.13 87 1014.5
20260906171546 63 275 0.0 0.0 0.00 0.00 0.08 85 1014.3
20260906170042 65 275 0.0 0.0 0.00 0.00 0.05 84 1014.1
20260906164541 66 275 0.0 0.0 0.00 0.00 0.01 82 1013.5
20260906163036 65 275 0.0 0.0 0.00 0.00 0.00 81 1013.4
20260906161533 65 275 0.0 0.0 0.00 0.00 0.00 80 1013.2
20260906160033 65 275 0.0 0.0 0.00 0.00 0.00 78 1013.1
20260906154527 66 275 0.0 0.0 0.00 0.00 0.00 74 1012.3
20260906153026 66 275 0.0 0.0 0.00 0.00 0.00 72 1012.3
20260906151528 66 275 0.0 0.0 0.00 0.00 0.00 69 1012.0
20260906150019 67 275 0.0 0.0 0.00 0.00 0.00 66 1011.9
20260906144518 69 274 0.0 0.0 0.00 0.00 0.00 60 1011.9
20260906143011 70 274 0.0 0.0 0.00 0.00 0.00 53 1011.5
20260906141510 70 274 0.0 0.0 0.00 0.00 0.00 51 1011.5
20260906140019 70 274 0.0 0.0 0.00 0.00 0.00 49 1011.3
20260906134509 70 273 0.0 0.0 0.00 0.00 0.00 53 1011.2
20260906133005 70 251 0.0 0.0 0.00 0.00 0.00 52 1011.4
20260906131502 69 251 0.0 0.0 0.00 0.00 0.00 53 1011.1
20260906130002 69 251 0.0 0.0 0.00 0.00 0.00 55 1010.9
20260906124503 69 250 0.0 0.0 0.00 0.00 0.00 55 1011.1
20260906123058 68 251 0.0 0.0 0.00 0.00 0.00 55 1010.8
20260906121603 68 251 0.0 0.0 0.00 0.00 0.00 59 1010.5
20260906120055 68 251 0.0 0.0 0.00 0.00 0.00 55 1010.4
20260906114603 69 251 0.0 0.0 0.00 0.00 0.00 53 1010.4
20260906113055 69 251 0.0 0.0 0.00 0.00 0.00 51 1010.6
20260906111546 68 250 0.0 0.0 0.00 0.00 0.00 54 1010.5
20260906110045 69 251 0.0 0.0 0.00 0.00 0.00 55 1010.6
20260906104543 69 251 0.0 0.0 0.00 0.00 0.00 54 1010.7
20260906103040 68 251 0.0 0.0 0.00 0.00 0.00 58 1010.6
20260906101539 68 251 0.0 0.0 0.00 0.00 0.00 60 1010.6
20260906100039 68 251 0.0 0.0 0.00 0.00 0.00 61 1010.6
20260906094541 67 251 0.0 0.0 0.00 0.00 0.00 64 1010.6
20260906093038 68 251 0.0 0.0 0.00 0.00 0.00 65 1010.5
20260906091536 68 250 0.0 0.0 0.00 0.00 0.00 62 1010.7
20260906090036 68 250 0.0 0.0 0.00 0.00 0.00 61 1011.0
20260906084537 67 250 0.0 0.0 0.00 0.00 0.00 64 1010.9
20260906083033 66 250 0.0 0.0 0.00 0.00 0.00 70 1011.0
20260906081542 66 250 0.0 0.0 0.00 0.00 0.00 69 1011.2
20260906080032 66 251 0.0 0.0 0.00 0.00 0.00 68 1011.2
20260906074531 66 251 0.0 0.0 0.00 0.00 0.00 68 1011.1
20260906073028 66 251 0.0 0.0 0.00 0.00 0.00 68 1011.2
20260906071528 65 251 0.0 0.0 0.00 0.00 0.00 72 1011.2
20260906070028 65 251 0.0 0.0 0.00 0.00 0.00 73 1011.2
20260906064528 66 250 0.0 0.0 0.00 0.00 0.00 76 1011.1
20260906063027 66 251 0.0 0.0 0.00 0.00 0.00 77 1011.3
20260906061525 66 250 0.0 0.0 0.00 0.00 0.00 76 1011.2
20260906060028 66 251 0.0 0.0 0.00 0.00 0.00 76 1011.2
20260906054529 66 251 0.0 0.0 0.00 0.00 0.00 77 1011.2
20260906053024 66 251 0.0 0.0 0.00 0.00 0.00 78 1011.3
20260906051521 66 251 0.0 0.0 0.00 0.00 0.00 76 1011.5
20260906050032 67 251 0.0 0.0 0.00 0.00 0.00 75 1011.6
20260906044533 67 251 0.0 0.0 0.00 0.00 0.00 76 1011.6
20260906043018 67 250 0.0 0.0 0.00 0.00 0.00 76 1011.8
20260906041518 68 251 0.0 0.0 0.00 0.00 0.00 75 1011.6
20260906040024 68 250 0.0 0.0 0.00 0.00 0.00 74 1011.5
20260906034517 68 251 0.0 0.0 0.00 0.00 0.00 73 1011.4
20260906033032 69 250 0.0 0.0 0.00 0.00 0.00 71 1011.2
20260906031515 70 251 0.0 0.0 0.00 0.00 0.00 69 1011.2
20260906030014 70 251 0.0 0.0 0.00 0.00 0.00 66 1011.0
20260906024515 71 251 0.0 0.0 0.00 0.00 0.00 64 1011.0
20260906023012 72 251 0.0 0.0 0.00 0.00 0.00 61 1011.0
20260906021510 73 251 0.0 0.0 0.00 0.00 0.00 58 1011.0
20260906020010 74 250 0.0 0.0 0.00 0.00 0.00 57 1011.0
20260906014511 75 250 0.0 0.0 0.00 0.00 0.00 56 1010.9
20260906013011 76 248 0.0 0.0 0.00 0.00 0.00 52 1010.9
20260906011508 78 252 0.0 0.0 0.00 0.00 0.00 48 1010.8
20260906010006 79 252 0.0 0.0 0.00 0.00 0.00 44 1011.0
20260906004506 80 260 0.0 0.0 0.00 0.00 0.00 42 1010.8
20260906003006 80 246 0.0 0.0 0.00 0.00 0.00 42 1010.7
20260906001503 81 245 0.0 0.0 0.00 0.00 0.00 41 1010.6
20260906000002 81 240 0.0 0.0 0.00 0.00 0.00 40 1010.7
20260905234503 82 215 0.0 0.0 0.00 0.00 0.00 37 1010.6
20260905233101 83 212 0.0 0.0 0.00 0.00 0.00 38 1010.6
20260905231600 83 209 0.0 0.0 0.00 0.00 0.00 41 1010.7
20260905230059 84 245 0.0 0.0 0.00 0.00 0.00 42 1010.7
20260905224608 84 237 0.0 0.0 0.00 0.00 0.00 41 1010.7
20260905223058 84 223 0.0 0.0 0.00 0.00 0.00 42 1010.8
20260905221602 85 226 0.0 0.0 0.00 0.00 0.00 45 1010.9
20260905220104 84 223 0.0 0.0 0.00 0.00 0.00 47 1011.0
20260905214552 85 232 0.0 0.0 0.00 0.00 0.00 46 1011.1
20260905213050 86 209 0.0 0.0 0.00 0.00 0.00 46 1011.2
20260905211602 86 223 0.0 0.0 0.00 0.00 0.00 45 1011.3
20260905210054 86 252 0.0 0.0 0.00 0.00 0.00 44 1011.5
20260905204554 86 236 1.0 0.0 0.00 0.00 0.00 44 1011.5
20260905203103 87 234 0.0 0.0 0.00 0.00 0.00 42 1011.7
20260905201545 87 235 0.0 0.0 0.00 0.00 0.00 40 1011.9
20260905200053 87 224 1.0 0.0 0.00 0.00 0.00 41 1012.0
20260905194539 86 227 1.0 0.0 0.00 0.00 0.00 37 1012.0
20260905193035 86 229 1.0 0.0 0.00 0.00 0.00 36 1012.3
20260905191533 85 233 0.0 0.0 0.00 0.00 0.00 37 1012.4
20260905190035 85 235 0.0 0.0 0.00 0.00 0.00 35 1012.7
20260905184534 85 236 0.0 0.0 0.00 0.00 0.00 35 1012.8
20260905183029 83 236 0.0 0.0 0.00 0.00 0.00 37 1012.9
20260905181527 82 236 0.0 0.0 0.00 0.00 0.00 39 1013.1